sat.trackr.live / text

‹ back to catalog

TIANQI-20

NORAD 64061 · 2025-105D

PAYLOAD ACTIVE UNKNOWN

§ Identity

Operator
Country
PRC
Launch date
2025-05-19
Launch site
YSLA
Launch vehicle
Mass (kg)
RCS (m²)

External: N2YO · Heavens-Above · Gunter

§ Orbital elements

Epoch: 2026-05-25T04:03:36.325152Z

Period
102.92 min
Inclination
44.9837°
Eccentricity
0.0011510
Mean motion
13.99130183 rev/d
Perigee alt
888.4 km
Apogee alt
905.2 km
Semi-major
7,274.9 km
B*
4.4848e-5
RAAN
124.4451°
Arg perigee
277.2647°
Mean anomaly
82.6878°
Rev number
5,198

§ Raw data

TIANQI-201 64061U 25105D   26145.16917043 -.00000063  00000+0  44848-4 0  99902 64061  44.9837 124.4451 0011510 277.2647  82.6878 13.99130183 51988

JSON: /api/v1/satellites/64061 · /tle

For live sub-satellite position, see the globe view (requires WebGL).

§ Visibility from observer

Set your observer location to see the next 7 days of passes ≥ 10°. The values pass through the URL so the page stays shareable.

No JS? Fill the form by hand. The geolocation button needs JavaScript.